Retour au catalogue

NOAA 16 DEB

ActifSSO
NORAD 41054·DEBRIS·🇺🇸 United States

Lancé Sep 21, 2000 depuis Vandenberg Space Force Base

Loading…

Prochains Passages (prochaines 24 heures)

TLE

FraisSource: Space-Track

Époque: Sep 14, 2026, 09:55 UTC

1 41054U 00055M   26257.41387134  .00000634  00000-0  23999-3 0  9995
2 41054  98.9905 147.8835 0063185 232.4667 127.0764 14.33740308563256

Suivez NOAA 16 DEB en temps réel avec AllMySat

Download on the App Store